Location: Unspecified
(43.3830°N, 0.0000°E)
Time: 10:04:33
(UTC+00:00)

Vanguard 2 - Pass Details

Date: 23 June 2019
Orbit: 554 x 2937 km, 32.9° (Epoch: 16 October)

Event Time Altitude Azimuth Distance (km) Brightness Sun altitude
Rises 10:14:15 0° 254° (WSW) 3,477 10.7 60.2°
Reaches altitude 10° 10:16:31 10° 247° (WSW) 2,761 10.3 60.5°
Maximum altitude 10:22:49 40° 179° (S) 1,899 10.5 61.4°
Drops below altitude 10° 10:32:52 10° 115° (ESE) 4,404 12.0 62.9°
Sets 10:37:31 0° 110° (ESE) 5,797 12.4 63.5°
